Weather History for Omaha, NE

Change the Weather History Date:

Sunday, August 18, 2013

  Actual Average Record
Temperature  
Mean Temperature 69 °F 75 °F  
Max Temperature 81 °F 85 °F 110 °F (1936)
Min Temperature 56 °F 64 °F 53 °F (1985)
Degree Days  
Heating Degree Days 0 0  
Month to date heating degree days 0 0  
Since 1 June heating degree days 21 18  
Since 1 July heating degree days 5 1  
Cooling Degree Days 4 10  
Month to date cooling degree days 139 191  
Year to date cooling degree days 830 868  
Since 1 June cooling degree days 734 786  
Growing Degree Days 18 (Base 50)    
Moisture  
Dew Point 57 °F    
Average Humidity 69    
Maximum Humidity 93    
Minimum Humidity 45    
Precipitation  
Precipitation 0.00 in 0.13 in 2.57 in (1876)
Month to date precipitation 1.69 2.29  
Year to date precipitation 21.21 21.58  
Snow  
Snow 0.00 in 0.00 in - ()
Month to date snowfall 0.0 0.0  
Since 1 July snowfall 0.0 0.0  
Snow Depth 0.00 in    
Sea Level Pressure  
Sea Level Pressure 30.11 in    
Wind  
Wind Speed 8 mph (SSE)    
Max Wind Speed 20 mph    
Max Gust Speed 24 mph    
Visibility 10 miles    
Events      
T = Trace of Precipitation, MM = Missing Value Source: NWS Daily Summary

Daily Weather History Graph

Daily Weather History Graph

Search for Another Location

Airport:

Trip Planner

Search our weather history database for the weather conditions in past years. The results will help you decide how hot, cold, wet, or windy it might be!

Date:

Astronomy

Aug. 18, 2013 Rise Set
Actual Time 6:36 AM CDT 8:17 PM CDT
Civil Twilight 6:06 AM CDT 8:47 PM CDT
Nautical Twilight 5:30 AM CDT 9:22 PM CDT
Astronomical Twilight 4:52 AM CDT 10:00 PM CDT
Moon 6:25 PM CDT (8/18) 3:45 AM CDT (8/18)
Length of Visible Light 14h 40m
Length of Day
13h 41m
Waxing Gibbous, 92% of the Moon is Illuminated
Aug 18
Waxing Gibbous
Aug 20
Full
Aug 28
Last Quarter
Sep 5
New
Sep 12
First Quarter

Hourly Weather History & Observations

Time (CDT) Temp. Heat Index Dew Point Humidity Pressure Visibility Wind Dir Wind Speed Gust Speed Precip Events Conditions
12:52 AM 62.1 °F - 57.9 °F 86% 30.13 in 10.0 mi Calm Calm - N/A   Clear
1:52 AM 60.1 °F - 57.0 °F 90% 30.13 in 10.0 mi Calm Calm - N/A   Clear
2:52 AM 59.0 °F - 57.9 °F 96% 30.13 in 7.0 mi Calm Calm - N/A   Clear
3:52 AM 59.0 °F - 55.9 °F 90% 30.13 in 8.0 mi Calm Calm - N/A   Clear
4:52 AM 57.0 °F - 55.9 °F 96% 30.13 in 9.0 mi Calm Calm - N/A   Clear
5:52 AM 57.9 °F - 55.9 °F 93% 30.14 in 10.0 mi Calm Calm - N/A   Partly Cloudy
6:52 AM 59.0 °F - 55.0 °F 87% 30.15 in 10.0 mi Calm Calm - N/A   Partly Cloudy
7:52 AM 61.0 °F - 57.0 °F 87% 30.15 in 10.0 mi SSE 3.5 mph - N/A   Clear
8:52 AM 66.0 °F - 57.0 °F 73% 30.16 in 10.0 mi SSE 5.8 mph - N/A   Clear
9:52 AM 71.1 °F - 57.0 °F 61% 30.15 in 10.0 mi SSE 9.2 mph - N/A   Clear
10:52 AM 73.9 °F - 55.9 °F 53% 30.15 in 10.0 mi South 10.4 mph - N/A   Clear
11:52 AM 77.0 °F - 55.0 °F 47% 30.14 in 10.0 mi South 16.1 mph 21.9 mph N/A   Partly Cloudy
12:52 PM 78.1 °F - 55.0 °F 45% 30.12 in 10.0 mi South 12.7 mph 21.9 mph N/A   Partly Cloudy
1:52 PM 79.0 °F - 55.0 °F 44% 30.09 in 10.0 mi South 13.8 mph - N/A   Partly Cloudy
2:52 PM 80.1 °F 80.4 °F 57.0 °F 45% 30.08 in 10.0 mi SSE 15.0 mph 20.7 mph N/A   Partly Cloudy
3:52 PM 80.1 °F 80.4 °F 57.0 °F 45% 30.07 in 10.0 mi South 10.4 mph 17.3 mph N/A   Partly Cloudy
4:52 PM 80.1 °F 80.4 °F 57.0 °F 45% 30.06 in 10.0 mi SSE 9.2 mph - N/A   Partly Cloudy
5:52 PM 80.1 °F 80.6 °F 57.9 °F 47% 30.06 in 10.0 mi South 13.8 mph 19.6 mph N/A   Partly Cloudy
6:52 PM 79.0 °F - 59.0 °F 50% 30.04 in 10.0 mi SSE 13.8 mph - N/A   Scattered Clouds
7:52 PM 77.0 °F - 59.0 °F 54% 30.05 in 10.0 mi SSE 13.8 mph - N/A   Partly Cloudy
8:52 PM 72.0 °F - 60.1 °F 66% 30.06 in 10.0 mi SE 6.9 mph - N/A   Scattered Clouds
9:52 PM 71.1 °F - 61.0 °F 70% 30.07 in 10.0 mi SSE 6.9 mph - N/A   Scattered Clouds
10:52 PM 70.0 °F - 61.0 °F 73% 30.07 in 10.0 mi SSE 8.1 mph - N/A   Mostly Cloudy
11:52 PM 71.1 °F - 61.0 °F 70% 30.07 in 10.0 mi SSE 9.2 mph - N/A   Mostly Cloudy